Cloud_Cover
0 0 0 0 0 2 17 74 5 44 95 48 5 5 5 42 12 17 97 100 100 100 76 5 2 4 8 0 0 0 0 1 1 0 0 4 8 11 8 15 1 9 3 0 5 0 0 4 7
0 0 0 0 0 0 0 5 2 2 6 36 43 5 5 12 35 19 91 60 100 99 91 6 5 1 5 8 0 0 0 0 0 0 0 0 3 1 4 7 1 0 15 0 0 2 8 2 0
0 0 0 0 0 0 0 0 0 1 0 5 24 5 23 95 92 82 29 73 13 87 100 73 14 5 2 4 2 7 9 2 0 0 0 0 8 11 4 0 0 0 0 0 0 0 4 0 0
0 0 0 0 0 0 0 0 0 0 0 5 5 5 5 55 63 42 42 12 25 35 28 100 100 87 5 0 0 0 5 5 20 38 24 2 3 0 2 3 0 0 0 0 0 0 0 0 4
0 0 0 0 0 0 0 0 0 0 0 0 3 15 5 5 10 100 84 7 50 58 97 97 100 100 100 40 4 0 2 6 8 6 86 100 100 100 46 5 5 3 1 1 1 2 2 0 2
0 0 0 0 0 0 0 0 0 0 0 0 0 3 5 5 15 58 98 88 71 54 49 77 95 100 100 100 100 99 47 52 55 47 79 33 17 5 5 4 5 5 28 24 5 6 5 3 2
0 0 0 0 0 0 0 0 0 0 0 0 0 0 0 5 11 42 23 47 83 42 41 100 38 9 100 100 100 100 99 99 91 38 93 83 5 5 3 2 0 3 5 5 5 5 13 6 5
0 0 0 0 0 0 0 0 0 0 0 0 0 0 0 0 27 54 68 38 44 41 58 98 73 56 100 100 100 100 100 100 100 100 100 98 22 41 5 5 5 5 5 5 1 0 2 24 49
0 0 0 0 0 0 0 0 0 0 0 0 23 26 1 90 54 100 100 97 77 35 95 55 99 100 100 100 100 100 100 100 100 100 100 100 100 90 95 95 96 6 5 5 5 15 5 5 5
1 3 0 0 0 0 0 0 0 0 0 3 61 51 93 100 100 100 100 100 100 86 72 99 99 100 100 100 100 100 72 100 100 100 100 100 100 100 99 76 87 13 5 23 5 59 97 65 87
0 5 0 0 0 0 0 0 0 0 0 2 89 51 98 99 100 100 100 100 100 100 100 100 98 100 100 100 100 100 100 100 100 100 100 100 100 100 100 97 90 66 50 74 8 10 93 95 95
0 16 5 5 0 0 0 0 0 0 0 0 12 30 9 100 100 100 100 100 100 100 100 100 100 100 100 100 100 100 100 100 100 100 100 96 100 93 46 16 5 1 0 0 26 99 100 98 100
5 5 6 79 3 0 0 0 0 0 0 0 1 2 9 78 92 76 97 100 100 100 100 100 100 100 100 100 100 100 100 100 100 100 100 96 14 11 15 9 4 0 0 0 2 100 100 100 100
4 5 32 48 4 0 0 0 0 0 0 0 0 0 0 5 18 100 56 100 100 100 100 100 100 100 100 100 100 100 100 100 100 100 100 95 24 8 14 5 0 0 1 7 67 97 100 100 100
0 3 5 56 4 0 0 0 0 0 0 0 0 0 0 1 5 100 100 98 100 100 100 100 100 100 100 100 100 100 100 100 100 100 86 26 33 6 5 5 0 0 5 46 94 100 100 100 100
5 5 5 27 10 4 0 1 0 0 0 0 0 0 0 0 4 13 99 100 87 100 100 100 100 100 100 100 100 100 100 100 100 63 52 96 65 12 38 48 5 5 6 5 5 5 96 100 100
5 5 5 5 28 81 26 4 0 0 0 0 0 0 0 0 4 1 38 72 100 100 100 100 100 100 100 100 100 100 100 100 100 67 24 5 8 19 5 5 9 63 70 100 100 74 10 100 100
5 5 5 5 21 100 100 10 1 0 1 0 0 5 4 0 0 5 0 99 91 100 100 100 100 100 100 100 100 100 100 100 96 62 99 100 92 94 98 60 75 82 96 100 100 92 98 47 51
79 5 5 5 48 87 97 59 5 0 0 0 5 0 5 5 0 0 5 2 100 98 98 100 100 100 100 100 100 100 100 100 100 92 36 76 100 100 100 94 96 80 27 16 0 20 49 100 100
100 99 21 5 5 100 100 94 5 4 0 0 3 5 5 3 0 0 0 4 5 76 100 100 76 100 100 100 100 100 100 100 100 100 100 100 100 25 56 80 77 38 5 5 3 26 39 100 91
100 100 83 84 11 100 92 80 14 12 0 0 5 5 38 0 5 5 4 4 2 15 10 83 100 100 100 100 97 98 100 100 100 100 100 100 100 100 100 99 82 53 25 15 18 3 27 95 100
62 48 100 98 5 100 100 100 46 98 4 3 5 5 5 39 41 5 3 5 5 1 99 92 43 83 100 100 94 100 82 81 88 100 100 100 98 88 100 100 99 79 62 53 24 45 98 100 100
5 51 51 33 33 90 100 5 96 100 61 5 6 5 5 5 5 5 3 5 2 5 5 87 100 100 100 100 100 100 100 32 18 34 88 100 100 100 100 100 100 100 100 49 60 100 91 100 100
6 33 67 10 41 41 100 27 98 100 100 100 12 5 69 20 8 5 5 5 5 4 5 15 45 97 100 100 88 99 100 100 100 95 85 96 34 63 99 100 100 100 100 100 87 82 100 38 91
57 40 74 25 100 47 26 60 100 100 100 100 80 31 14 92 84 17 9 5 5 5 5 1 12 97 77 100 100 100 99 100 100 100 90 67 51 43 100 100 100 95 99 97 85 83 100 100 97
68 65 100 99 22 5 6 95 100 100 100 100 100 99 96 100 100 56 39 13 5 5 5 5 5 5 5 7 98 100 100 100 100 100 100 100 100 100 100 100 89 78 32 72 99 98 100 100 100
97 100 100 77 93 5 45 100 100 100 100 100 100 100 100 100 100 100 91 6 5 5 5 13 31 24 5 1 62 100 100 100 100 100 100 100 100 100 86 16 48 37 63 100 100 100 100 100 100
100 84 100 100 79 19 92 100 100 100 100 100 100 100 100 100 100 100 99 88 8 5 5 5 7 67 82 43 33 17 97 100 100 100 100 100 100 100 100 100 98 27 75 100 100 100 100 100 46
80 100 100 100 83 88 81 94 99 100 100 100 100 100 100 100 100 100 99 98 65 85 98 5 5 5 17 62 98 99 100 96 96 100 100 100 100 100 100 76 27 42 97 100 92 100 100 100 88
96 100 100 100 98 80 100 100 100 100 100 100 100 100 100 100 100 100 96 98 80 100 100 21 16 54 98 100 98 100 98 98 98 45 84 87 90 80 42 60 99 100 100 100 100 100 100 100 100